Houston Hull, TX

11:15 AM CDT on June 25, 2017 (GMT -0500)
Sugar Land Municipal-Hull

Weather History for KSGR - April, 2014

Change the Weather History Date:

Thursday, April 24, 2014

  Actual Average Record
Temperature  
Mean Temperature 76 °F -  
Max Temperature 86 °F 81 °F 89 °F (1958)
Min Temperature 66 °F 62 °F 46 °F (2005)
Cooling Degree Days 11    
Growing Degree Days 26 (Base 50)    
Moisture  
Dew Point 66 °F    
Average Humidity 79    
Maximum Humidity 93    
Minimum Humidity 51    
Precipitation  
Precipitation 0.00 in - - ()
Sea Level Pressure  
Sea Level Pressure 29.86 in    
Wind  
Wind Speed 10 mph (South)    
Max Wind Speed 17 mph    
Max Gust Speed 21 mph    
Visibility 10 miles    
Events      
Averages and records for this station are not official NWS values.
T = Trace of Precipitation, MM = Missing Value Source: NWS Daily Summary

Daily Weather History Graph

Daily Weather History Graph

Search for Another Location

Airport or City:

Trip Planner

Search our weather history database for the weather conditions in past years. The results will help you decide how hot, cold, wet, or windy it might be!

Date:

Astronomy

Apr. 24, 2014 Rise Set
Actual Time 6:46 AM CDT 7:55 PM CDT
Civil Twilight 6:21 AM CDT 8:19 PM CDT
Nautical Twilight 5:52 AM CDT 8:49 PM CDT
Astronomical Twilight 5:22 AM CDT 9:20 PM CDT
Moon 3:35 AM CDT (4/24) 3:32 PM CDT (4/24)
Length of Visible Light 13h 58m
Length of Day
13h 08m
Waning Crescent, 24% of the Moon is Illuminated
Apr 24
Waning Crescent
Apr 29
New
May 6
First Quarter
May 14
Full
May 21
Last Quarter

Hourly Weather History & Observations

Time (CDT) Temp. Heat Index Dew Point Humidity Pressure Visibility Wind Dir Wind Speed Gust Speed Precip Events Conditions
12:11 AM 69.1 °F - 66.0 °F 90% 29.86 in 10.0 mi SSE 11.5 mph - N/A   Mostly Cloudy
12:53 AM 70.0 °F - 66.0 °F 87% 29.86 in 10.0 mi SSE 12.7 mph - N/A   Overcast
1:53 AM 70.0 °F - 66.0 °F 87% 29.84 in 10.0 mi SE 9.2 mph - N/A   Overcast
2:53 AM 69.1 °F - 66.0 °F 90% 29.84 in 10.0 mi SE 8.1 mph - N/A   Mostly Cloudy
3:53 AM 69.1 °F - 66.0 °F 90% 29.82 in 10.0 mi SSE 10.4 mph - N/A   Clear
4:15 AM 69.1 °F - 66.0 °F 90% 29.82 in 10.0 mi SSE 6.9 mph - N/A   Mostly Cloudy
4:53 AM 69.1 °F - 66.0 °F 90% 29.83 in 10.0 mi SSE 8.1 mph - N/A   Overcast
5:53 AM 68.0 °F - 66.0 °F 93% 29.83 in 10.0 mi SSE 6.9 mph - N/A   Mostly Cloudy
6:39 AM 68.0 °F - 64.9 °F 90% 29.85 in 10.0 mi SSE 6.9 mph - N/A   Mostly Cloudy
6:53 AM 66.9 °F - 64.9 °F 93% 29.86 in 10.0 mi South 5.8 mph - N/A   Partly Cloudy
7:20 AM 68.0 °F - 66.0 °F 93% 29.86 in 10.0 mi SSE 6.9 mph - N/A   Mostly Cloudy
7:27 AM 69.1 °F - 66.0 °F 90% 29.86 in 10.0 mi SSE 6.9 mph - N/A   Scattered Clouds
7:53 AM 70.0 °F - 66.9 °F 90% 29.87 in 10.0 mi SSE 9.2 mph - 0.00 in   Clear
8:26 AM 72.0 °F - 66.9 °F 84% 29.87 in 10.0 mi SSE 10.4 mph - N/A   Mostly Cloudy
8:53 AM 73.0 °F - 66.9 °F 81% 29.88 in 10.0 mi South 13.8 mph - N/A   Mostly Cloudy
9:20 AM 75.0 °F - 66.9 °F 76% 29.88 in 10.0 mi South 17.3 mph - N/A   Scattered Clouds
9:32 AM 75.9 °F - 66.9 °F 74% 29.89 in 10.0 mi South 17.3 mph - N/A   Mostly Cloudy
9:53 AM 73.9 °F - 66.0 °F 76% 29.86 in 10.0 mi SSE 17.3 mph - N/A   Mostly Cloudy
10:03 AM 73.9 °F - 66.0 °F 76% 29.87 in 10.0 mi South 10.4 mph 20.7 mph N/A   Mostly Cloudy
10:12 AM 73.9 °F - 66.0 °F 76% 29.88 in 10.0 mi South 11.5 mph - N/A   Mostly Cloudy
10:43 AM 73.9 °F - 66.0 °F 76% 29.87 in 10.0 mi South 5.8 mph - N/A   Partly Cloudy
10:53 AM 75.0 °F - 66.0 °F 73% 29.89 in 10.0 mi Variable 6.9 mph - N/A   Partly Cloudy
11:53 AM 80.1 °F 82.3 °F 66.9 °F 64% 29.89 in 10.0 mi SSW 9.2 mph 18.4 mph N/A   Partly Cloudy
12:53 PM 82.0 °F 84.1 °F 66.0 °F 58% 29.88 in 10.0 mi South 13.8 mph - N/A   Partly Cloudy
1:53 PM 82.9 °F 85.0 °F 66.0 °F 56% 29.87 in 10.0 mi South 11.5 mph 17.3 mph N/A   Mostly Cloudy
2:53 PM 86.0 °F 88.2 °F 66.0 °F 51% 29.86 in 10.0 mi SW 12.7 mph - N/A   Partly Cloudy
3:53 PM 82.9 °F 85.0 °F 66.0 °F 56% 29.85 in 10.0 mi SSW 8.1 mph - N/A   Mostly Cloudy
4:53 PM 82.9 °F 85.4 °F 66.9 °F 58% 29.83 in 10.0 mi South 11.5 mph - N/A   Mostly Cloudy
5:53 PM 81.0 °F 83.3 °F 66.9 °F 62% 29.84 in 10.0 mi South 6.9 mph - N/A   Overcast
6:53 PM 80.1 °F 82.7 °F 68.0 °F 67% 29.84 in 10.0 mi South 13.8 mph - N/A   Mostly Cloudy
7:53 PM 75.9 °F - 66.9 °F 74% 29.85 in 10.0 mi South 12.7 mph - N/A   Clear
8:53 PM 73.0 °F - 66.9 °F 81% 29.87 in 10.0 mi South 6.9 mph - N/A   Clear
9:53 PM 72.0 °F - 68.0 °F 87% 29.90 in 10.0 mi SSW 5.8 mph - N/A   Clear
10:53 PM 70.0 °F - 66.9 °F 90% 29.92 in 10.0 mi South 5.8 mph - N/A   Clear
11:53 PM 70.0 °F - 66.9 °F 90% 29.93 in 10.0 mi Calm Calm - N/A   Clear